Home   Weather   Sorocaba   Past weeks

Flag for Brazil Past Weather in Sorocaba, São Paulo, Brazil — Yesterday and Last 2 Weeks

79 °F

Passing clouds.

Feels Like: 81 °F
Forecast: 68 / 85 °F
Wind: 7 mph from Northeast

Location: Campinas Aeroporto

Current Time: Oct 26, 2016 at 1:19:45 PM

Latest Report: Oct 26, 2016 at 1:00 PM

Visibility: N/A

Pressure: 29.95 "Hg (27.96 "Hg at 602m altitude)

Humidity: 61%

Dew Point: 64 °F

Location of SorocabaLocation

Past Weather in Sorocaba — Graph


Sorocaba Temperature Yesterday

Maximum temperature yesterday: 73 °F (at 10:00 AM)
Minimum temperature yesterday: 68 °F (at 5:00 AM)
Average temperature yesterday: 71 °F

High & Low Weather Summary for the Past Weeks

High97 °F (Oct 19, 4:00 PM)100% (Oct 13, 4:00 PM)30.15 "Hg (Oct 13, 4:00 PM)
Low63 °F (Oct 12, 4:00 AM)22% (Oct 17, 5:00 PM)29.80 "Hg (Oct 20, 4:00 PM)
Average75 °F66%30.01 "Hg
* Reported Oct 11 11:00 AM — Oct 26 12:00 PM, Sorocaba, Weather by CustomWeather, © 2016

Note: Actual official high and low records may vary slightly from our data, if they occured in-between our weather recording intervals... More about our weather records


Sorocaba Weather History for the Previous 24 Hours

Scroll right to see more
Time TempWeatherWind HumidityBarometerVisibility
12:00 PM
Wed, Oct 26
79 °FSunny.6 mph61%29.95 "Hg10 mi
11:00 AM79 °FSunny.3 mph58%29.98 "Hg10 mi
10:00 AM75 °FSunny.3 mph74%29.98 "Hg10 mi
9:00 AM72 °FSunny.7 mph88%29.95 "Hg10 mi
8:00 AM70 °FSunny.6 mph88%29.95 "Hg10 mi
7:00 AM68 °FSunny.6 mph94%29.92 "Hg10 mi
6:00 AM68 °FClear.5 mph94%29.92 "Hg10 mi
5:00 AM68 °FClear.6 mph94%29.92 "Hg10 mi
4:00 AM68 °FClear.6 mph94%29.92 "Hg10 mi
3:00 AM68 °FClear.5 mph94%29.98 "Hg10 mi
2:00 AM70 °FClear.8 mph94%29.98 "Hg10 mi
1:00 AM70 °FClear.7 mph94%29.98 "Hg10 mi
12:00 AM70 °FClear.6 mph94%30.01 "Hg10 mi
11:00 PM
Tue, Oct 25
70 °FClear.6 mph94%30.01 "Hg10 mi
10:00 PM72 °FClear.6 mph88%29.98 "Hg10 mi
9:00 PM72 °FClear.No wind88%30.01 "Hg10 mi
8:00 PM72 °FClear.3 mph88%29.98 "Hg10 mi
7:00 PM73 °FScattered clouds.16 mph78%29.98 "HgN/A
6:00 PM72 °FPassing clouds.3 mph83%29.95 "HgN/A
5:00 PM72 °FLight rain. Scattered clouds.2 mph83%29.98 "HgN/A
4:00 PM72 °FLight rain. Partly sunny.7 mph83%30.01 "HgN/A
3:00 PM73 °FLight rain. Broken clouds.7 mph78%30.01 "HgN/A
2:00 PM73 °FLight rain. Scattered clouds.6 mph78%30.01 "HgN/A
1:00 PM73 °FScattered showers. Partly sunny.3 mph74%30.04 "HgN/A
Weather by CustomWeather, © 2016

See weather overviewHow to use our weather pages